Overview Statistics Trail Chart Weather Telemetry Raw packets
 

This is the latest recevied weather packets stored in our database for station/object DG9VH-13. If no packets are shown the sender has not sent any weather packets the latest 10 day(s).

<< 23 24 25 26 27 28 29 >>
Time Temp. Humidity Pressure Rain* Wind** Luminosity Snow
1788349802 24.44° C 43% 1003.8 hPa - - - -
1788349203 24.44° C 44% 1003.8 hPa - - - -
1788348601 24.44° C 44% 1003.9 hPa - - - -
1788348001 24.44° C 45% 1003.8 hPa - - - -
1788347401 24.44° C 45% 1003.9 hPa - - - -
1788346802 24.44° C 46% 1004.1 hPa - - - -
1788346200 24.44° C 46% 1004.2 hPa - - - -
1788345600 24.44° C 46% 1004.2 hPa - - - -
1788345002 25° C 46% 1004.3 hPa - - - -
1788344401 25° C 45% 1004.3 hPa - - - -
1788343801 24.44° C 46% 1004.4 hPa - - - -
1788343201 24.44° C 46% 1004.4 hPa - - - -
1788342601 24.44° C 45% 1004.4 hPa - - - -
1788342000 24.44° C 46% 1004.3 hPa - - - -
1788341402 24.44° C 45% 1004.2 hPa - - - -
1788340800 23.33° C 48% 1004.2 hPa - - - -
1788340200 24.44° C 49% 1004.2 hPa - - - -
1788339603 23.89° C 51% 1004.2 hPa - - - -
1788339001 22.22° C 54% 1004.2 hPa - - - -
1788338400 21.67° C 56% 1004.2 hPa - - - -
1788337801 20.56° C 57% 1004.2 hPa - - - -
1788337201 20.56° C 57% 1004 hPa - - - -
1788336601 21.67° C 53% 1004.3 hPa - - - -
1788336001 26.11° C 46% 1004.3 hPa - - - -
1788335401 25.56° C 47% 1007.3 hPa - - - -

* Rain since midnight (hover to see other rain measurements)
** Current wind speed in m/s (hover to see current wind gust speed)